Regional Weather Roundup
Issued by NWS Upton, NY

Current Version | Previous Version | Text Only | Print | Product List | Glossary On
Versions: 1 2 3 4 5 6 7 8 9 10 11 12 13 14 15 16 17 18 19 20 21 22 23 24 25 26 27 28 29 30 31 32 33 34 35 36 37 38 39 40 41 42 43 44 45 46 47 48 49 50
000 ASUS41 KOKX 240808 RWROKX REGIONAL WEATHER ROUNDUP NATIONAL WEATHER SERVICE NEW YORK NY 400 AM EDT SAT SEP 24 2016 NOTE: "FAIR" INDICATES FEW OR NO CLOUDS BELOW 12,000 FEET WITH NO SIGNIFICANT WEATHER AND/OR OBSTRUCTIONS TO VISIBILITY. NYZ071-072-176-178-NJZ106-104-240900- NEW YORK CITY METRO AREA CITY SKY/WX TMP DP RH WIND PRES REMARKS Central Park CLOUDY 61 56 83 VRB6G20 30.07S LaGuardia APRT CLOUDY 64 58 80 NE16 30.03F Kennedy INTL LGT RAIN 62 57 83 NE17 30.04R Newark/Liberty CLOUDY 61 57 87 N15 30.04R Bronx Bot Gard N/A 59 55 88 E9 30.07R Wall St Helipt CLOUDY 64 59 82 NE13G21 30.04R Teterboro CLOUDY 61 55 81 N7 30.04S $$ NYZ177-179-078>081-240900- LONG ISLAND NEW YORK CITY SKY/WX TMP DP RH WIND PRES REMARKS Farmingdale CLOUDY 60 58 92 NE14 30.04S MacArthur/ISP CLOUDY 61 59 93 NE13 30.04S Shirley CLOUDY 60 59 96 VRB5 30.05F Riverhead NOT AVBL Westhampton CLOUDY 61 57 87 NE13 30.07S Southampton N/A 63 57 82 NE6 30.01F Bridgehampton N/A 59 55 88 NW3 29.91R East Hampton CLOUDY 59 55 88 NE8 30.05S Montauk N/A 59 55 87 NE10 30.07R $$ NYZ052-065-067-240900- HUDSON VALLEY CITY SKY/WX TMP DP RH WIND PRES REMARKS White Plains CLOUDY 57 53 86 NE8 30.05F Newburgh MOCLDY 57 52 82 NE7 30.09F Montgomery CLOUDY 59 50 72 NE12 30.08S Poughkeepsie CLOUDY 56 51 84 NE7 30.08F Albany CLEAR 51 47 86 N5 30.12S $$ NJZ001-105-106-008-010-013-015-019>022-104-240900- NEW JERSEY CITY SKY/WX TMP DP RH WIND PRES REMARKS Newark/Liberty CLOUDY 61 57 87 N15 30.04R Teterboro CLOUDY 61 55 81 N7 30.04S Caldwell CLOUDY 60 56 86 NE6 30.05F Morristown CLOUDY 59 55 88 N5 30.05S Somerville CLOUDY 63 54 72 N7 30.03R Linden NOT AVBL Sussex CLOUDY 59 50 72 NE8 30.08S Abdover N/A 57 53 86 NE6 30.06F Trenton MOCLDY 64 57 78 NE10G20 30.02R Millville CLEAR 66 66 100 N3 29.98R Atlantic City MOCLDY 67 64 90 N6 29.98S Wrightstown CLOUDY 68 64 87 NE15G22 29.99R Toms River CLOUDY 68 64 87 NE15 30.02R Belmar CLOUDY 66 62 87 N12 30.03R $$ PAZ047>061-062-071-240900- EASTERN PENNSYLVANIA CITY SKY/WX TMP DP RH WIND PRES REMARKS Philadelphia PTCLDY 72 63 73 NE13 30.00R Allentown CLOUDY 63 57 81 E15G21 30.05R Scranton CLOUDY 61 57 87 N7 30.08S $$ CTZ002-004>006-009-010-012-RIZ004-006-007-MAZ004-011-015-240900- SOUTHERN NEW ENGLAND IN CT CITY SKY/WX TMP DP RH WIND PRES REMARKS Bradley INTL CLOUDY 55 53 93 N6 30.10S Hartford CLOUDY 57 54 89 N9 30.09S Danbury CLOUDY 55 50 83 NE8 30.09F Wtrbury/Oxford N/A 54 48 82 NE7 30.09S Bridgeport CLOUDY 59 54 83 NE14 30.06F Meriden CLOUDY 57 53 86 N5 30.08S New Haven CLOUDY 56 54 93 N9 30.07F Chester CLOUDY 57 55 94 NE7 30.07S Groton LGT RAIN 59 54 83 NE12 30.06R Wilimantic CLOUDY 57 55 93 N6 30.09S IN RI CITY SKY/WX TMP DP RH WIND PRES REMARKS Providence CLOUDY 57 53 86 NE8 30.07S Block Island RAIN 58 55 90 NE12G24 30.05F FOG Westerly RAIN 57 52 83 VRB6 30.08R IN MA CITY SKY/WX TMP DP RH WIND PRES REMARKS Boston CLOUDY 57 52 83 N8 30.08F Worcester LGT RAIN 51 50 96 NE6 30.09S FOG Westfield CLOUDY 56 47 71 N8 30.10S Provincetown CLOUDY 59 50 72 NE14 30.06F Nantucket LGT RAIN 58 55 90 NE14 30.04S $$ ANZ330-335-338-340-345-350-353-355-240900- COASTAL MARINE OBSERVATIONS STATION/POSITION TIME SKY/WX TEMP WIND PRES VSBY WAVE AIR SEA DIR/SP/G HT/PER (UTC) (F) (DEG/KT/KT) (MB) (MI) (FT/S) NY HARB ENTRANCE 0750 65 73 30/ 25/ 31 1015.0 5/ 4 20S FIRE ISLAND 0750 67 71 50/ 21/ 25 1015.2 5/11 GREAT SOUTH BAY 0730 63 74 30/ 16/ 17 N/A 23 SSW MONTAUK P 0750 62 69 50/ 21/ 25 1016.8 7/ 6 15 E BARNEGAT LI 0730 73 N/A 4/11 HUDSON CANYON 0650 68 71 1015.0 4/10 KINGS POINT 0748 62 75 1017.2 EXECUTION ROCKS 0745 64 40/ 17/ 23 N/A CENTRAL LI SOUND NOT AVBL EASTERN LI SOUND NOT AVBL ROBBINS REEF 0748 64 50/ 16/ 20 1016.9 $$ >>>>>>>>>>>>>>>>>>>>>>>>>>>> KEY <<<<<<<<<<<<<<<<<<<<<<<<<<< > < > SKY/WX - Sky Condition/Present Weather < > TMP - Temperature in Fahrenheit < > DP - Dew Point in Fahrenheit < > RH - Relative Humidity in Percent < > WIND - Direction (from) and Speed in MPH < > PRES - Mean Sea Level Pressure (inches of Hg) < > WCI - Wind Chill Index < > VSB - VISIBILITY IN MILES < > HX - HEAT INDEX < > TC - TEMPERATURE IN CELSIUS < > VRB - VARIABLE WIND DIRECTION < > < >>>>>>>>>>>>>>>>>>>>>>>>>>>> KEY <<<<<<<<<<<<<<<<<<<<<<<<<<<

USA.gov is the U.S. government's official web portal to all federal, state and local government web resources and services.